Location: Unspecified
(0.0000°N, 0.0000°E)
Time: 13:03:28
(UTC+00:00)

Transit 2A Rocket - Pass Details

Date: 21 December 2018
Orbit: 588 x 915 km, 66.7° (Epoch: 15 July)

Event Time Altitude Azimuth Distance (km) Brightness Sun altitude
Rises 04:28:13 0° 175° (S) 2,818 8.4 -20.5°
Reaches altitude 10° 04:30:57 10° 157° (SSE) 1,910 7.7 -19.9°
Maximum altitude 04:34:04 20° 110° (ESE) 1,387 7.3 -19.2°
Drops below altitude 10° 04:37:14 10° 62° (ENE) 1,936 7.6 -18.4°
Sets 04:40:00 0° 45° (NE) 2,870 8.3 -17.8°
